Location: Artiguedieu
(43.5000°N, 0.5454°E)
Time: 08:22:41
(UTC+00:00)

Explorer 7 - Pass Details

Date: 05 August 2021
Orbit: 484 x 676 km, 50.3° (Epoch: 22 September)

Event Time Altitude Azimuth Distance (km) Brightness Sun altitude
Rises 08:51:50 0° 299° (WNW) 2,649 9.9 41.6°
Reaches altitude 10° 08:54:00 10° 298° (WNW) 1,786 9.1 42.0°
Maximum altitude 08:58:04 83° 211° (SSW) 565 7.6 42.7°
Drops below altitude 10° 09:02:23 10° 124° (ESE) 1,897 10.6 43.4°
Sets 09:04:44 0° 123° (ESE) 2,830 11.2 43.8°
